Location: G�kdere
(37.0328°N, 30.9000°E)
Time: 03:02:22
(UTC+00:00)

MOS 1 - Pass Details

Date: 03 March 2021
Orbit: 878 x 891 km, 99.1° (Epoch: 22 April)

Event Time Altitude Azimuth Distance (km) Brightness Sun altitude
Exits shadow 17:43:24 50° 95° (E) 1,122 4.4 -22.9°
Maximum altitude 17:44:03 53° 71° (ENE) 1,088 4.4 -23.0°
Drops below altitude 10° 17:49:33 10° 357° (N) 2,556 6.8 -24.1°
Sets 17:52:00 0° 352° (N) 3,497 7.6 -24.5°
